Mitchell, SD

6:21 PM CST on December 12, 2019 (GMT -0600)
Mitchell Municipal

Weather History for KMHE - May, 2019

Change the Weather History Date:

Wednesday, May 8, 2019

  Actual Average Record
Temperature  
Mean Temperature 45 °F 57 °F  
Max Temperature 49 °F 69 °F 102 °F (1934)
Min Temperature 40 °F 45 °F 25 °F (1945)
Degree Days  
Heating Degree Days 20 9  
Month to date heating degree days 119 78  
Since 1 July heating degree days 7807 7078  
Cooling Degree Days 0 1  
Month to date cooling degree days 0 5  
Year to date cooling degree days 0 7  
Moisture  
Dew Point 41 °F    
Average Humidity 86    
Maximum Humidity 93    
Minimum Humidity 79    
Precipitation  
Precipitation 0.35 in 0.06 in 1.19 in (2003)
Month to date precipitation 0.39 0.66  
Year to date precipitation 7.97 4.46  
Snow  
Snow 0.00 in - 0.00 in ()
Month to date snowfall 0.0  
Since 1 July snowfall 67.6  
Snow Depth 0.00 in    
Sea Level Pressure  
Sea Level Pressure 29.91 in    
Wind  
Wind Speed 18 mph (NE)    
Max Wind Speed 28 mph    
Max Gust Speed 38 mph    
Visibility 6 miles    
Events Rain    
T = Trace of Precipitation, MM = Missing Value Source: NWS Daily Summary

Daily Weather History Graph

Daily Weather History Graph

Search for Another Location

Airport or City:

Astronomy

May. 08, 2019 Rise Set
Actual Time 6:15 AM CDT 8:42 PM CDT
Civil Twilight 5:42 AM CDT 9:15 PM CDT
Nautical Twilight 5:02 AM CDT 9:55 PM CDT
Astronomical Twilight 4:17 AM CDT 10:41 PM CDT
Moon 9:10 AM CDT (5/8) No Moon Set
Length of Visible Light 15h 32m
Length of Day
14h 27m
Waxing Crescent, 16% of the Moon is Illuminated
May 8
Waxing Crescent
May 11
First Quarter
May 18
Full
May 26
Last Quarter
Jun 3
New

Hourly Weather History & Observations

Time (CDT) Temp. Windchill Dew Point Humidity Pressure Visibility Wind Dir Wind Speed Gust Speed Precip Events Conditions
12:53 AM 48.0 °F - 45.0 °F 89% 30.04 in 5.0 mi ENE 8.1 mph - 0.00 in Rain Light Rain
1:53 AM 48.0 °F - 45.0 °F 89% 30.03 in 6.0 mi ENE 11.5 mph - 0.01 in Rain Light Rain
2:53 AM 48.0 °F - 45.0 °F 89% 30.00 in 6.0 mi East 15.0 mph - 0.00 in Rain Light Rain
3:02 AM 48.0 °F - 45.0 °F 89% 29.98 in 6.0 mi East 15.0 mph - 0.00 in Rain Light Rain
3:34 AM 48.0 °F - 45.0 °F 89% 29.96 in 5.0 mi East 12.7 mph - 0.01 in Rain Light Rain
3:53 AM 48.0 °F - 45.0 °F 89% 29.97 in 5.0 mi ENE 12.7 mph - 0.01 in Rain Light Rain
4:53 AM 48.9 °F - 46.0 °F 90% 29.96 in 5.0 mi ENE 12.7 mph - 0.02 in Rain Light Rain
5:13 AM 48.0 °F - 46.0 °F 93% 29.93 in 5.0 mi ENE 13.8 mph - 0.00 in Rain Light Rain
5:31 AM 48.0 °F - 46.0 °F 93% 29.93 in 5.0 mi ENE 13.8 mph - 0.00 in Rain Light Rain
5:51 AM 48.2 °F - 46.4 °F 93% 29.93 in 5.0 mi ENE 15.0 mph - 0.00 in Rain Light Rain
5:53 AM 48.0 °F - 46.0 °F 93% 29.94 in 5.0 mi ENE 13.8 mph - 0.00 in Rain Light Rain
6:53 AM 48.9 °F - 46.0 °F 90% 29.91 in 4.0 mi ENE 15.0 mph - 0.00 in Rain Light Rain
7:53 AM 48.9 °F - 46.0 °F 90% 29.91 in 5.0 mi East 16.1 mph 21.9 mph 0.00 in Rain Light Rain
8:07 AM 48.9 °F - 45.0 °F 86% 29.89 in 7.0 mi East 17.3 mph - 0.00 in Rain Light Rain
8:43 AM 48.0 °F - 44.1 °F 86% 29.88 in 6.0 mi East 19.6 mph 31.1 mph 0.00 in Rain Light Rain
8:48 AM 48.2 °F - 44.6 °F 87% 29.88 in 7.0 mi East 19.6 mph 31.1 mph 0.00 in Rain Light Rain
8:53 AM 48.0 °F - 44.1 °F 86% 29.89 in 8.0 mi East 17.3 mph 31.1 mph 0.00 in Rain Light Rain
9:23 AM 48.0 °F - 44.1 °F 86% 29.87 in 6.0 mi East 13.8 mph - 0.00 in Rain Light Rain
9:53 AM 46.9 °F - 43.0 °F 86% 29.88 in 5.0 mi East 19.6 mph 31.1 mph 0.00 in Rain Light Rain
9:57 AM 46.9 °F - 43.0 °F 86% 29.86 in 5.0 mi East 18.4 mph 31.1 mph 0.00 in Rain Light Rain
10:19 AM 46.9 °F - 44.1 °F 90% 29.86 in 4.0 mi ENE 11.5 mph - 0.02 in Rain Rain
10:51 AM 46.4 °F 38.7 °F 42.8 °F 87% 29.85 in 4.0 mi ENE 20.7 mph 29.9 mph 0.03 in Rain Light Rain
10:53 AM 46.9 °F - 43.0 °F 86% 29.87 in 4.0 mi ENE 17.3 mph 29.9 mph 0.03 in Rain Light Rain
11:01 AM 46.9 °F - 43.0 °F 86% 29.85 in 4.0 mi ENE 19.6 mph - 0.01 in Rain Light Rain
11:08 AM 46.9 °F - 43.0 °F 86% 29.85 in 5.0 mi NE 16.1 mph 26.5 mph 0.01 in Rain Light Rain
11:12 AM 46.9 °F - 44.1 °F 90% 29.85 in 5.0 mi NE 15.0 mph 26.5 mph 0.01 in Rain Light Rain
11:22 AM 46.9 °F - 43.0 °F 86% 29.85 in 5.0 mi NE 18.4 mph - 0.01 in Rain Light Rain
11:53 AM 46.9 °F - 43.0 °F 86% 29.87 in 5.0 mi NE 17.3 mph - 0.02 in Rain Light Rain
12:01 PM 46.9 °F - 43.0 °F 86% 29.86 in 4.0 mi NE 16.1 mph - 0.00 in Rain Light Rain
12:29 PM 46.9 °F - 43.0 °F 86% 29.86 in 5.0 mi NNE 13.8 mph - 0.03 in Rain Light Rain
12:37 PM 46.0 °F 39.6 °F 43.0 °F 89% 29.86 in 4.0 mi NE 15.0 mph 25.3 mph 0.04 in Rain Rain
12:45 PM 46.0 °F 39.3 °F 42.1 °F 86% 29.86 in 5.0 mi NE 16.1 mph 27.6 mph 0.04 in Rain Light Rain
12:53 PM 46.0 °F 39.0 °F 42.1 °F 86% 29.88 in 8.0 mi NE 17.3 mph 26.5 mph 0.05 in Rain Light Rain
1:18 PM 45.0 °F 37.6 °F 41.0 °F 86% 29.86 in 7.0 mi NE 17.3 mph - 0.01 in Rain Light Rain
1:53 PM 45.0 °F 37.9 °F 41.0 °F 86% 29.87 in 5.0 mi NE 16.1 mph 26.5 mph 0.04 in Rain Light Rain
2:21 PM 45.0 °F 38.5 °F 42.1 °F 90% 29.85 in 3.0 mi NE 13.8 mph - 0.03 in Rain Rain
2:36 PM 45.0 °F 37.6 °F 39.9 °F 82% 29.84 in 6.0 mi NE 17.3 mph 31.1 mph 0.04 in Rain Light Rain
2:53 PM 45.0 °F 37.9 °F 41.0 °F 86% 29.86 in 5.0 mi NE 16.1 mph 26.5 mph 0.06 in Rain Rain
3:53 PM 44.1 °F 35.0 °F 39.0 °F 82% 29.87 in 8.0 mi NE 24.2 mph 33.4 mph 0.01 in Rain Light Rain
4:14 PM 44.1 °F 34.4 °F 39.0 °F 82% 29.85 in 5.0 mi NNE 27.6 mph 38.0 mph 0.01 in Rain Rain
4:22 PM 43.0 °F 34.0 °F 39.0 °F 86% 29.86 in 4.0 mi NNE 21.9 mph 38.0 mph 0.02 in Rain Rain
4:34 PM 43.0 °F 33.8 °F 37.9 °F 82% 29.86 in 5.0 mi NNE 23.0 mph 34.5 mph 0.02 in Rain Light Rain
4:45 PM 43.0 °F 34.5 °F 39.0 °F 86% 29.87 in 5.0 mi NE 19.6 mph 32.2 mph 0.03 in Rain Rain
4:53 PM 43.0 °F 34.2 °F 39.0 °F 86% 29.90 in 5.0 mi NNE 20.7 mph 32.2 mph 0.04 in Rain Light Rain
5:53 PM 42.1 °F 33.9 °F 37.9 °F 85% 29.92 in 4.0 mi NNE 17.3 mph 29.9 mph 0.03 in Rain Light Rain
6:00 PM 42.1 °F 32.6 °F 37.9 °F 85% 29.90 in 4.0 mi NNE 23.0 mph 31.1 mph 0.01 in Rain Light Rain
6:11 PM 41.0 °F 31.4 °F 37.0 °F 86% 29.91 in 4.0 mi NNE 21.9 mph 33.4 mph 0.01 in Rain Light Rain
6:53 PM 42.1 °F 33.6 °F 37.9 °F 85% 29.95 in 5.0 mi NNE 18.4 mph 32.2 mph 0.03 in Rain Light Rain
7:02 PM 42.1 °F 33.9 °F 37.9 °F 85% 29.93 in 6.0 mi NNE 17.3 mph - 0.00 in Rain Light Rain
7:49 PM 41.0 °F 30.5 °F 35.6 °F 81% 29.95 in 9.0 mi NNE 26.5 mph 34.5 mph 0.00 in Rain Light Rain
7:53 PM 41.0 °F 31.4 °F 36.0 °F 82% 29.98 in 8.0 mi NNE 21.9 mph 34.5 mph 0.00 in Rain Light Rain
8:33 PM 41.0 °F 31.6 °F 37.0 °F 86% 29.97 in 10.0 mi North 20.7 mph 28.8 mph 0.00 in Rain Light Rain
8:53 PM 39.9 °F 30.2 °F 36.0 °F 86% 30.01 in 10.0 mi North 20.7 mph 31.1 mph 0.00 in Rain Light Rain
9:44 PM 39.9 °F 30.5 °F 37.0 °F 89% 29.99 in 10.0 mi North 19.6 mph 26.5 mph 0.00 in Rain Light Rain
9:53 PM 39.9 °F 30.5 °F 36.0 °F 86% 30.02 in 10.0 mi North 19.6 mph 29.9 mph 0.00 in Rain Light Rain
10:23 PM 39.9 °F 30.5 °F 36.0 °F 86% 29.99 in 10.0 mi North 19.6 mph 27.6 mph 0.00 in   Overcast
10:53 PM 39.9 °F 31.1 °F 37.0 °F 89% 30.02 in 10.0 mi North 17.3 mph - 0.00 in   Mostly Cloudy
11:06 PM 41.0 °F 31.9 °F 37.0 °F 86% 30.00 in 10.0 mi North 19.6 mph 28.8 mph N/A   Overcast
11:33 PM 41.0 °F 32.2 °F 37.0 °F 86% 30.00 in 10.0 mi North 18.4 mph 27.6 mph N/A   Overcast
11:53 PM 41.0 °F 32.5 °F 37.0 °F 86% 30.03 in 10.0 mi North 17.3 mph 27.6 mph N/A   Mostly Cloudy